Flag for U.S.A. Weather past 2 weeks in Babylon, New York, U.S.A.

Now
23 °F

Sunny.


Feels Like: 14 °F
Forecast: 13 / 35 °F
Wind: 8 mph from Northeast

Location: Republic Airport

Current Time: Jan 29, 2015 at 9:59:57 AM

Latest Report: Jan 29, 2015 at 8:53 AM


Visibility: 10 mi

Pressure: 30.33 "Hg

Humidity: 50%

Dew point: 7 °F

Location of BabylonLocation

Historic Weather in Babylon — Graph

°F

Babylon temperature yesterday

Maximum temperature yesterday: 32 °F (at 2:53 PM)
Minimum temperature yesterday: 17 °F (at 1:53 AM)
Average temperature yesterday: 24 °F

Past Weeks' High & Low Weather Summary

 TemperatureHumidityPressure
High49 °F (Jan 18, 11:53 AM)100% (Jan 18, 1:02 PM)30.47 "Hg (Jan 18, 1:02 PM)
Low14 °F (Jan 29, 4:53 AM)31% (Jan 17, 12:53 PM)29.24 "Hg (Jan 24, 3:53 PM)
Average31 °F62%29.98 "Hg
* Reported Jan 14 8:53 AM — Jan 29 8:53 AM, Babylon, Weather by CustomWeather, © 2014

Note: Actual official high and low records may vary slightly from our data, if they occured in-between our weather recording intervals... More about our weather records

Advertising

Babylon weather history for previous 24 hours

 ConditionsComfort  
Time TempWeatherWind HumidityBarometerVisibility
8:53 AM
Jan 29
23 °FSunny.8 mph50%30.33 "Hg10 mi
7:53 AM17 °FSunny.No wind68%30.33 "Hg10 mi
6:53 AM15 °FClear.No wind58%30.32 "Hg10 mi
5:53 AM14 °FClear.6 mph58%30.30 "Hg10 mi
4:53 AM14 °FClear.No wind61%30.30 "Hg10 mi
3:53 AM16 °FClear.No wind53%30.30 "Hg10 mi
2:53 AM20 °FClear.No wind45%30.29 "Hg10 mi
1:53 AM22 °FClear.7 mph40%30.28 "Hg10 mi
12:53 AM23 °FClear.7 mph38%30.27 "Hg10 mi
11:53 PM
Jan 28
23 °FClear.7 mph38%30.26 "Hg10 mi
10:53 PM24 °FClear.7 mph40%30.26 "Hg10 mi
9:53 PM24 °FClear.5 mph44%30.24 "Hg10 mi
8:53 PM25 °FClear.5 mph42%30.23 "Hg10 mi
7:53 PM28 °FClear.8 mph35%30.22 "Hg10 mi
6:53 PM29 °FClear.12 mph34%30.18 "Hg10 mi
5:53 PM30 °FClear.12 mph40%30.15 "Hg10 mi
4:53 PM31 °FSunny.12 mph40%30.11 "Hg10 mi
3:53 PM31 °FSunny.17 mph41%30.08 "Hg10 mi
2:53 PM32 °FSunny.16 mph41%30.06 "Hg10 mi
1:53 PM30 °FSunny.13 mph43%30.04 "Hg10 mi
12:53 PM28 °FSunny.10 mph45%30.04 "Hg10 mi
11:53 AM26 °FSunny.10 mph44%30.04 "Hg10 mi
10:53 AM24 °FSunny.17 mph46%30.05 "Hg10 mi
9:53 AM22 °FSunny.16 mph48%30.03 "Hg10 mi
Weather by CustomWeather, © 2014

See weather overviewHow to use our weather pages